Location: Moscow Pond
(43.6842°N, 73.2366°W)
Time: 07:03:45
(UTC+00:00)

NOSS 0 Rocket - Pass Details

Date: 08 November 2025
Orbit: 934 x 953 km, 70.0° (Epoch: 13 December)

Event Time Altitude Azimuth Distance (km) Brightness Sun altitude
Rises 09:45:42 0° 204° (SSW) 3,575 6.8 -20.6°
Reaches altitude 10° 09:48:12 10° 204° (SSW) 2,635 6.1 -20.1°
Maximum altitude 09:54:20 88° 116° (ESE) 941 3.9 -19.0°
Drops below altitude 10° 10:00:30 10° 27° (NNE) 2,656 6.5 -17.9°
Sets 10:03:02 0° 27° (NNE) 3,606 7.3 -17.5°
